Location: Luxembourg
(49.6117°N, 6.1300°E)
Time: 21:13:29
(UTC+01:00)

N. Korean satellite - Pass Details

Date: 24 January 2019
Orbit: 456 x 510 km, 97.2° (Epoch: 20 February)

Event Time Altitude Azimuth Distance (km) Brightness Sun altitude
Rises 07:19:43 0° 8° (N) 2,625 10.2 -9.5°
Reaches altitude 10° 07:21:52 10° 4° (N) 1,729 9.2 -9.2°
Maximum altitude 07:25:29 52° 288° (WNW) 631 6.7 -8.6°
Drops below altitude 10° 07:29:02 10° 211° (SSW) 1,689 9.2 -8.1°
Sets 07:31:07 0° 206° (SSW) 2,557 10.2 -7.8°
